SCP
0 0 0 0 0 0 0 0 1 2 5 9 10 8 5 5 5 4 4 5 5 6 7 6 6 4 3 2 3 3 2 1 1 1 1 1 1 1 1 1 1 1 1 1
0 0 0 0 0 0 0 1 1 2 5 10 11 7 5 4 4 4 3 4 5 6 7 7 6 4 3 3 3 3 2 1 1 1 1 1 1 1 1 1 1 1 1 1
0 0 0 0 1 1 1 1 2 2 5 9 9 6 4 4 3 3 3 3 5 7 8 8 7 5 4 3 3 2 1 1 1 1 1 1 1 1 1 1 1 1 1 1
1 0 0 1 1 1 2 1 2 3 6 9 9 6 4 3 3 3 4 4 5 7 9 9 7 5 4 3 2 2 1 1 1 1 1 1 1 1 1 1 1 1 1 1
1 1 1 1 1 2 1 1 2 4 8 11 10 7 4 3 3 4 5 6 7 9 10 10 8 6 4 2 1 1 1 1 1 1 1 1 1 1 1 1 1 1 1 1
1 1 1 1 1 1 1 2 2 6 9 9 8 6 4 4 5 5 6 8 10 12 12 11 10 7 3 2 1 1 1 1 1 1 1 1 1 1 1 1 1 1 1 1
1 1 1 1 1 2 2 3 4 7 9 8 6 5 5 6 6 6 7 10 13 13 13 12 11 8 4 2 1 1 1 1 1 2 2 2 2 2 2 1 1 2 1 1
1 1 2 2 2 2 4 5 7 11 11 9 7 7 7 8 7 6 7 10 12 11 11 12 11 9 5 3 2 2 1 1 2 2 2 2 3 3 2 2 1 2 2 1
1 2 2 2 2 3 5 7 9 12 12 9 8 8 8 8 7 6 7 8 8 8 8 11 12 10 7 5 4 3 2 2 2 3 2 2 3 3 3 2 1 2 2 2
2 1 2 2 2 3 5 5 6 8 9 8 7 7 7 7 7 6 6 6 6 5 5 8 12 11 8 7 6 4 3 3 3 3 3 2 2 2 2 2 2 2 2 2
1 1 1 1 1 3 4 5 4 5 5 6 6 6 6 6 6 6 5 4 4 3 4 6 10 12 10 8 7 6 4 4 4 4 3 2 2 1 2 2 2 1 2 2
1 1 1 1 1 2 4 5 5 5 5 5 5 5 5 6 7 6 4 3 3 3 4 5 9 13 11 8 8 6 5 4 4 3 3 2 2 1 1 1 1 1 1 1
1 1 1 1 1 1 2 3 4 4 4 4 4 4 5 7 8 6 4 3 3 3 3 4 8 13 11 8 7 7 6 4 4 3 3 2 2 1 1 0 0 0 0 0
1 0 0 0 0 0 1 1 2 2 2 2 2 3 5 8 9 6 4 3 2 2 3 3 6 10 10 8 7 7 6 5 4 3 3 2 2 1 1 1 1 1 0 0
0 0 0 0 0 0 0 0 1 1 1 1 1 2 5 9 9 6 4 3 2 2 2 2 4 6 7 7 7 7 6 5 4 3 3 2 2 1 1 1 1 1 1 1
0 0 0 0 0 0 0 0 1 1 0 0 1 2 6 9 8 5 3 2 2 1 2 2 2 4 6 7 6 5 5 4 3 3 2 2 1 1 1 1 1 1 1 1
0 0 0 0 0 0 0 0 1 1 1 0 1 3 6 8 6 3 2 1 1 1 1 1 2 3 5 6 4 3 3 3 3 2 2 2 1 1 0 0 0 1 1 1
0 0 0 0 0 0 0 1 1 1 1 0 1 3 6 6 4 2 2 1 1 1 1 1 1 2 3 4 3 3 3 3 3 2 2 1 1 1 0 0 0 0 0 0
0 0 0 0 0 1 1 1 1 1 1 1 2 4 5 4 2 2 2 1 1 1 1 1 1 1 2 2 1 2 3 4 3 2 2 1 1 0 0 0 0 0 0 0
0 0 0 0 1 1 1 1 1 1 1 1 2 3 3 2 1 1 1 1 1 1 1 1 1 1 1 1 1 2 3 4 3 2 2 1 1 1 1 1 1 0 0 0
0 1 1 1 1 1 1 1 1 1 1 1 1 1 1 1 1 1 1 1 1 1 1 1 1 1 1 1 1 2 3 4 3 2 2 1 1 1 1 1 0 0 0 0
1 1 1 1 1 1 0 0 0 1 1 1 1 1 1 1 1 1 1 1 1 0 0 0 0 0 0 1 2 3 4 4 3 2 2 1 1 1 0 0 0 0 0 0
1 1 1 1 0 1 1 1 1 1 1 1 1 1 1 1 1 1 1 1 0 0 0 0 0 0 0 1 2 4 5 4 2 1 1 1 1 1 0 0 0 0 0 0
1 1 0 0 1 1 1 1 1 1 1 0 0 1 1 1 1 1 1 0 0 0 0 0 0 0 0 0 1 3 4 3 1 1 1 1 1 1 0 0 0 0 0 0
1 1 1 1 1 1 2 1 1 1 1 0 0 0 0 0 1 1 0 0 0 0 0 0 0 0 0 0 0 1 1 1 0 0 0 0 0 1 1 0 0 0 0 0
1 1 1 1 1 1 1 1 1 1 1 1 0 0 0 0 0 0 0 0 0 0 0 0 0 0 0 0 0 0 0 0 0 0 0 0 0 1 1 1 0 1 1 0
1 1 1 2 2 1 1 1 0 0 1 1 0 0 0 0 0 0 0 0 0 0 0 0 0 0 0 0 0 0 0 0 0 0 0 0 1 1 1 1 1 1 1 0
Wind_Speed
11 12 12 11 10 9 8 8 7 4 2 4 3 5 6 5 5 5 5 5 5 5 4 4 4 4 3 3 3 3 3 3 2 2 1 1 0 1 1 1 2 2 2 2
11 12 12 12 11 9 8 9 6 5 1 4 5 4 4 4 4 4 4 4 5 5 5 4 4 3 3 3 3 3 3 2 2 2 2 1 1 1 1 1 2 2 2 2
10 11 12 11 10 8 6 5 4 2 3 5 4 4 4 3 3 4 3 4 5 5 4 4 4 3 2 3 3 3 3 3 2 1 1 1 1 1 1 1 1 2 2 2
9 10 12 6 3 3 3 2 4 3 3 3 4 4 4 4 4 4 3 4 4 4 4 4 4 3 2 2 2 2 2 2 2 1 1 1 1 1 1 1 1 1 1 2
7 9 9 6 3 3 3 0 3 3 4 4 5 4 5 5 3 3 4 4 3 3 4 5 4 3 3 2 2 2 2 2 1 1 2 1 1 1 1 1 1 1 1 2
8 10 9 3 4 4 3 2 4 5 4 3 2 1 3 3 3 4 4 4 3 3 3 5 4 4 3 2 2 2 2 2 2 2 1 1 1 0 0 1 1 1 1 1
9 9 5 4 5 3 3 2 4 4 4 3 3 3 3 3 3 3 4 4 3 3 2 3 5 4 3 2 2 2 2 2 1 1 2 1 1 1 1 1 1 1 1 1
7 8 4 7 6 5 5 4 4 4 4 4 4 4 3 3 3 3 3 3 3 2 2 2 4 4 3 3 2 2 2 2 1 0 1 1 1 1 2 1 1 1 1 1
3 1 4 5 5 4 3 3 3 3 3 3 3 2 2 2 2 1 2 2 2 2 2 2 3 4 4 3 3 2 2 2 2 1 1 1 1 2 1 0 1 1 1 1
2 1 2 3 3 4 4 2 2 2 2 2 1 2 2 1 0 1 1 1 1 2 2 2 2 4 4 4 3 3 2 2 2 2 2 2 2 1 1 1 1 1 1 1
3 2 3 3 4 4 4 3 2 2 2 2 1 1 0 1 0 1 1 1 2 2 2 2 3 3 4 4 4 3 3 3 3 3 3 2 2 1 1 1 0 1 2 2
3 3 3 4 4 4 4 4 2 3 3 2 2 1 1 1 1 1 2 2 2 2 3 3 3 3 4 4 4 4 3 3 3 3 3 3 3 2 1 2 2 2 0 1
3 4 4 5 5 5 4 4 3 3 3 3 2 2 2 1 2 2 2 2 2 3 3 3 4 4 4 5 5 4 3 3 3 2 2 3 3 3 3 2 3 3 3 3
4 3 4 5 6 5 5 4 3 3 3 3 2 2 2 2 2 2 3 2 3 3 4 3 4 4 4 4 4 4 4 4 4 3 2 3 2 3 3 3 3 3 5 8
3 3 3 4 5 5 4 3 3 3 3 3 2 3 2 2 2 2 2 2 2 3 3 3 3 2 2 3 4 5 5 4 4 3 3 3 3 3 3 3 3 3 3 4
4 3 3 3 4 4 5 4 3 4 3 3 3 3 2 2 3 2 2 2 2 3 3 3 3 3 3 3 3 4 4 4 4 4 4 3 3 3 2 2 2 2 2 2
5 4 4 4 5 5 5 5 4 4 4 3 3 4 3 3 3 2 2 3 3 3 3 3 3 3 4 3 4 4 4 4 5 5 4 3 3 3 3 2 2 1 1 1
5 4 4 5 5 6 6 5 5 4 4 4 4 4 4 4 4 3 3 4 3 3 3 3 2 3 4 4 3 4 4 4 4 5 4 3 3 3 3 2 2 1 1 2
5 5 5 5 5 5 5 5 5 5 4 4 4 4 4 4 3 3 3 3 3 3 3 2 2 4 3 3 3 4 5 5 4 4 3 3 3 4 3 2 2 2 2 2
6 6 6 6 5 5 5 5 5 5 4 3 4 4 4 3 2 2 2 3 2 2 2 2 3 3 3 2 3 4 4 4 4 3 3 3 3 3 3 3 2 2 3 1
7 7 7 6 5 5 5 5 5 5 4 3 4 4 3 2 3 2 2 3 2 2 2 2 2 2 2 2 4 5 4 4 3 2 3 2 2 3 3 3 3 2 2 1
8 7 7 6 6 5 5 5 5 4 4 4 4 4 3 2 3 2 3 2 1 1 2 2 1 0 2 3 4 4 4 3 3 2 2 3 2 2 2 3 3 2 1 1
7 7 7 6 6 5 5 4 4 4 4 4 4 3 3 2 2 2 2 2 2 1 2 2 1 1 2 4 4 4 4 3 3 2 3 3 3 2 2 2 2 2 1 1
7 7 7 7 6 5 5 4 4 4 4 5 4 3 2 2 2 2 2 2 2 2 3 1 3 3 3 4 4 4 3 3 4 3 3 3 3 2 2 2 2 1 1 2
6 7 7 7 6 5 4 4 4 4 4 3 3 3 3 2 3 2 2 1 1 2 2 2 5 5 5 4 4 4 4 3 2 2 2 2 3 2 2 2 1 1 1 1
5 5 5 5 5 5 4 3 3 3 3 3 3 2 2 2 2 2 2 3 3 3 3 2 3 5 5 5 4 3 2 2 2 3 2 2 2 2 1 1 2 1 1 1
5 4 3 4 5 5 4 4 4 4 3 3 3 3 3 3 3 3 3 3 2 2 3 3 3 4 4 3 2 2 2 2 2 2 2 2 2 1 1 1 1 1 1 1
Wind_Direction
280 280 281 280 280 282 279 276 275 265 203 159 147 138 131 132 131 129 130 124 122 126 129 132 130 133 130 129 126 124 122 124 131 140 158 159 97 38 23 9 358 355 338 345
279 279 280 283 279 276 282 286 275 271 119 108 95 106 128 135 137 134 134 135 130 127 126 124 125 129 131 135 134 136 137 140 139 160 161 134 127 91 43 10 1 345 338 2
273 279 280 271 274 273 270 285 285 286 102 112 102 96 86 85 112 117 114 119 127 131 129 125 123 121 133 136 141 150 144 139 139 158 146 116 66 64 34 11 351 347 357 19
268 273 263 270 298 305 290 333 33 69 90 99 89 95 92 84 91 102 107 101 108 122 132 132 132 136 142 139 148 150 140 135 142 147 108 110 93 63 27 21 359 345 349 6
268 266 263 261 292 307 278 212 60 78 87 86 85 109 104 71 76 89 100 98 104 121 143 142 141 141 141 143 140 147 135 132 132 108 96 89 80 59 29 8 327 323 335 350
261 270 273 342 359 346 295 204 64 72 78 83 98 175 106 68 60 76 85 93 101 111 136 144 144 149 163 160 153 154 145 133 130 130 121 117 83 14 345 306 297 303 333 346
255 263 272 21 2 325 281 35 49 62 68 73 62 45 80 96 76 77 93 100 103 109 123 146 147 155 169 161 160 161 149 130 126 147 152 145 139 255 259 260 266 277 293 341
248 255 260 24 20 24 42 42 44 54 49 60 69 68 67 85 86 89 101 112 115 120 125 141 153 157 163 167 162 158 151 139 125 152 215 161 180 233 253 264 262 261 265 273
317 347 51 41 40 55 47 39 46 53 40 42 70 64 51 63 95 99 119 126 138 148 145 141 166 172 178 180 175 172 163 161 161 181 212 191 209 228 221 264 281 290 298 324
315 25 24 31 25 26 19 41 50 44 22 13 46 55 43 13 75 133 131 151 160 169 179 180 192 189 181 180 180 183 185 187 190 195 202 188 218 205 186 230 275 296 327 348
292 318 331 7 2 352 354 10 24 13 355 342 3 31 7 308 231 189 188 196 190 191 196 205 209 203 192 184 180 190 201 210 211 203 201 187 186 207 186 100 61 335 352 354
308 340 325 325 325 339 343 331 352 343 331 326 305 285 279 271 256 230 226 219 207 205 216 222 222 214 199 188 189 195 208 220 224 210 195 195 187 174 113 167 178 160 153 329
320 324 324 324 328 340 327 321 328 325 321 318 310 293 270 260 259 251 239 233 232 225 221 222 231 220 204 199 193 196 207 224 240 224 205 213 205 191 185 189 221 234 236 242
2 349 330 335 337 337 329 322 320 316 311 316 317 305 274 254 256 244 239 242 255 248 233 225 237 225 205 203 194 197 209 218 241 235 224 233 226 222 214 193 193 206 223 229
342 345 330 331 323 327 331 331 329 322 320 325 317 300 278 271 272 263 252 248 250 251 240 230 238 233 205 210 203 202 214 221 231 243 237 240 242 243 237 221 202 189 179 201
332 329 327 318 310 312 308 306 307 304 305 312 312 301 293 285 277 259 255 249 246 254 253 244 238 232 220 213 210 204 219 230 231 248 247 243 246 247 248 249 235 203 204 193
322 325 325 313 303 299 296 290 287 289 293 291 291 292 288 280 277 263 257 260 257 262 260 257 251 240 225 217 222 221 218 214 214 236 252 254 255 256 255 257 262 261 226 154
325 323 305 295 294 295 293 289 288 288 286 284 275 278 275 273 269 263 266 266 263 265 264 255 242 239 230 223 230 247 234 221 215 231 242 255 276 275 268 274 279 277 241 191
315 316 311 305 294 293 300 299 292 286 281 283 277 265 262 262 258 265 276 273 273 269 275 264 244 250 246 228 237 246 251 238 222 224 229 228 246 258 258 268 272 267 255 216
319 315 310 303 299 298 297 302 301 290 282 280 284 270 264 260 254 257 274 281 280 291 299 290 246 246 247 220 247 252 255 258 245 234 233 234 244 254 264 270 274 283 284 272
322 325 322 319 323 319 312 305 305 305 297 279 277 274 273 261 253 251 254 266 298 325 303 278 255 251 260 266 238 254 253 255 260 253 250 245 246 252 266 281 281 278 283 288
329 327 328 325 321 319 316 306 300 299 302 299 285 281 275 268 259 260 267 265 261 281 271 258 255 305 324 286 255 258 261 258 261 258 256 259 251 243 251 264 270 275 289 309
330 328 324 318 315 310 311 304 294 287 287 285 283 278 272 274 261 249 260 265 249 238 262 261 146 143 299 277 270 266 268 272 269 262 252 253 251 248 252 256 262 271 300 295
325 325 320 314 311 306 303 299 293 284 276 269 269 268 260 256 260 258 256 214 215 232 264 217 177 200 237 260 270 269 267 263 254 249 255 255 255 249 249 251 254 255 267 263
321 316 312 311 307 305 301 296 290 283 274 269 264 263 258 254 262 273 271 248 186 225 255 223 206 218 237 255 258 258 257 262 269 272 271 283 272 260 251 251 244 246 256 253
310 303 309 305 304 306 305 303 297 293 293 290 282 274 267 257 259 265 249 239 239 239 246 230 219 222 236 245 250 254 257 276 276 262 268 276 283 287 283 270 270 262 274 253
302 304 306 308 314 313 310 309 303 300 296 294 297 289 284 276 260 256 257 241 233 246 252 244 235 239 249 251 249 243 241 248 258 263 264 270 276 293 316 332 341 335 322 310